Location: Arrakis Observatory
(44.1122°N, 95.7153°W)
Time: 17:32:49
(UTC-05:00)

Iridium 35 - Visible Passes

Search period start: 27 April 2017 00:00
Search period end: 07 May 2017 00:00
Orbit: 776 x 779 km, 86.4° (Epoch: 26 April)

Date Brightness Start Highest point End Pass type
(mag) Time Alt. Az. Time Alt. Az. Time Alt. Az.
27 Apr 6.9 22:13:15 10° NNW 22:17:41 29° W 22:22:05 10° SW visible
28 Apr 5.9 21:39:17 10° NNW 21:44:20 51° W 21:49:21 10° SSW visible
29 Apr 5.1 21:05:37 10° N 21:10:52 89° E 21:16:05 10° S visible
29 Apr 8.0 22:49:09 10° WNW 22:50:44 11° WNW 22:52:18 10° W visible
30 Apr 7.5 22:13:49 10° NNW 22:17:35 21° W 22:21:21 10° SW visible
01 May 6.6 21:39:35 10° NNW 21:44:19 36° W 21:49:02 10° SSW visible
02 May 5.6 21:05:45 10° N 21:10:55 64° W 21:16:04 10° S visible
03 May 7.8 22:14:42 10° NW 22:17:27 15° WNW 22:20:12 10° WSW visible
04 May 7.3 21:40:01 10° NNW 21:44:15 26° W 21:48:28 10° SW visible
05 May 6.3 21:05:59 10° NNW 21:10:56 45° W 21:15:52 10° SSW visible
